Regional Weather Roundup
Issued by NWS

Home | Current Version | Previous Version | Graphics & Text | Print | Product List | Glossary On
Versions: 1 2 3 4 5 6 7 8 9 10 11 12 13 14 15 16 17 18 19 20 21 22 23 24 25 26 27 28
000
ASUS45 KSLC 241010
RWRUT

UTAH REGIONAL WEATHER ROUNDUP
NATIONAL WEATHER SERVICE SALT LAKE CITY UT
400 AM MDT MON APR 24 2017

UTZ001>011-023>025-241100-

NORTHERN UTAH

CITY           SKY/WX    TMP DP  RH WIND       PRES   REMARKS
BRIGHAM CITY     N/A     50  36  59 CALM      29.74F
HILL AFB         N/A     46  33  61 E13       29.75F
LOGAN            N/A     39  34  82 S3        29.74F
OGDEN            N/A     44  35  70 S8        29.74F
SALT LAKE CITY   N/A     49  38  65 SE8       29.74F
TOOELE VALLEY    N/A     46  36  66 S16       29.73F
WENDOVER       NOT AVBL
HEBER CITY       N/A     32  30  93 CALM      29.80F
WEST JORDAN      N/A     51  46  80 S14       29.76F

$$

UTZ011>015-024>027-241100-

CENTRAL/NORTHEAST UTAH

CITY           SKY/WX    TMP DP  RH WIND       PRES   REMARKS
PROVO AIRPORT    N/A     42  38  85 SE5       29.79F
MOAB/CANYONLAN   N/A     51  33  50 W5        29.77F
DELTA            N/A     41  37  87 NE5       29.77F
PRICE            N/A     39  32  76 N9        29.82F WCI  33
RICHFIELD      CLEAR     36  36 100 CALM      29.83F
ROOSEVELT      PTCLDY    48  28  46 NW6       29.81F
VERNAL         CLOUDY    46  37  71 NW3       29.80R

$$

UTZ013>016-019>022-027-241100-

SOUTHERN UTAH

CITY           SKY/WX    TMP DP  RH WIND       PRES   REMARKS
BRYCE CANYON     N/A     29  23  78 W7        29.89F WCI  22
CEDAR CITY       N/A     41  29  62 CALM      29.79F
MILFORD          N/A     40  35  83 SW9       29.77F WCI  34
ST GEORGE        N/A     56  26  31 SE9       29.68F
HANKSVILLE       N/A     48  32  53 CALM      29.80F
KANAB          CLEAR     45  28  53 NE6       29.83F
BLANDING         N/A     46  24  41 NW6       29.90S

$$

REGIONAL REPORTS     COLORADO/ARIZONA

CITY           SKY/WX    TMP DP  RH WIND       PRES   REMARKS
CRAIG, CO      CLOUDY    43  38  82 NW6       29.85R
GRAND JUNCTION CLOUDY    50  33  52 VRB3      29.78R
RIFLE, CO      CLOUDY    51  36  56 CALM      29.78S
MONTROSE, CO   CLOUDY    53  27  36 SW7       29.83R
CORTEZ, CO     CLOUDY    41  27  57 E6        29.85F
COLORADO CITY    N/A     41  28  60 CALM      29.81F
PAGE, AZ         N/A     58  26  29 S5        29.76F
GRAND CANYON     N/A     37  24  59 S3        29.91S
KINGMAN, AZ      N/A     60  17  18 SW15      29.74F
FLAGSTAFF, AZ    N/A     49  22  34 SW10      29.94F

$$

REGIONAL REPORTS    NEVADA/IDAHO/WYOMING

CITY           SKY/WX    TMP DP  RH WIND       PRES   REMARKS
LAS VEGAS, NV    N/A     67  21  17 S5        29.64F
ELY, NY          N/A     32  28  85 S10       29.83F WCI  24
ELKO, NV         N/A     44  28  53 SW5       29.79F
POCATELLO, ID  CLOUDY    46  36  68 SW6       29.74F
BURLEY, ID     MOCLDY    45  37  73 S3        29.73S
EVANSTON, WY   CLOUDY    33  30  88 SW8       29.81F WCI  26
ROCK SPRINGS,  CLOUDY    37  33  85 SW8       29.81F WCI  31
KEMMERER, WY     N/A     32  28  86 N5        29.82S WCI  27

$$




USA.gov is the U.S. government's official web portal to all federal, state and local government web resources and services.